Location: Bush Observatory
(40.2653°N, 94.3194°W)
Time: 10:59:06
(UTC-05:00)

Daily predictions for brighter satellites

Satellite Brightness Start Highest point End
(mag) Time Altitude Azimuth Time Altitude Azimuth Time Altitude Azimuth
Meteor 1-10 Rocket 4.3 20:54:07 10° N 20:59:56 72° E 21:05:36 10° SSE
ISS -3.4 21:00:49 10° SW 21:04:04 83° SE 21:07:20 10° NE
Cosmos 1378 Rocket 4.5 21:00:19 10° NNE 21:04:08 30° ENE 21:07:56 10° SE
Cosmos 1733 Rocket 3.1 20:59:53 10° S 21:04:17 89° ESE 21:08:42 10° N
Cosmos 1908 Rocket 4.1 21:00:14 10° SSE 21:04:18 38° E 21:08:25 10° NNE
Cosmos 1606 3.4 21:03:50 10° N 21:07:32 38° ENE 21:11:12 10° SSE
Cosmos 1452 Rocket 3.6 21:03:31 10° S 21:08:38 55° ESE 21:13:48 10° NNE
Cosmos 1862 4.0 21:07:31 10° SSE 21:11:15 36° E 21:15:02 10° NNE
BREEZE-M DEB (TANK) 3.6 21:09:36 10° W 21:11:36 23° NNW 21:13:22 10° NE
Cosmos 1190 Rocket 4.1 21:06:30 10° NNW 21:11:43 80° WSW 21:16:54 10° SSE
Cosmos 1892 3.8 21:08:37 10° SSW 21:12:20 49° W 21:16:08 10° N
Cosmos 1238 Rocket 3.7 21:10:26 10° NNE 21:13:26 27° E 21:16:51 10° SE
CENTAUR R/B 4.1 21:08:46 10° NW 21:16:15 45° WSW 21:24:01 10° S
Cosmos 1184 Rocket 3.9 21:14:13 10° SSE 21:17:04 27° E 21:19:57 10° NE
SPOT 5 4.0 21:14:19 10° SE 21:18:59 32° ENE 21:23:42 10° N
deb Chang Zheng 4 4.1 21:16:30 10° NNE 21:20:39 38° E 21:24:48 10° SSE
Abrixas 4.1 21:21:07 10° S 21:23:12 17° SE 21:24:56 12° E
Meteor 1-27 Rocket 3.7 21:20:15 10° N 21:25:47 69° E 21:31:16 10° SSE
H-2A R/B 4.2 21:24:27 10° SSW 21:27:52 36° W 21:31:21 10° NNW
Cosmos 1242 Rocket 3.8 21:26:00 10° NNE 21:29:08 26° ENE 21:31:23 15° ESE
Timation 2 Rocket 4.4 21:23:28 10° NNW 21:29:11 44° ENE 21:34:08 14° SE
ATLAS 5 CENTAUR R/B 3.9 21:27:23 10° NW 21:32:44 32° WSW 21:38:22 10° S
H-2A R/B 2.3 21:29:41 11° SSE 21:33:42 53° ENE 21:37:48 10° N
YAOGAN 6 4.0 21:33:24 15° ESE 21:35:13 22° ENE 21:37:59 10° NNE
Cosmos 1782 3.7 21:31:46 10° NNW 21:35:41 52° W 21:39:37 10° S
Cosmos 2154 Rocket 4.0 21:30:13 10° S 21:36:25 78° E 21:42:37 10° N
Cosmos 1408 2.5 21:33:35 10° S 21:37:12 64° E 21:40:49 10° NNE
Cosmos 1174 4.1 21:39:23 10° NW 21:42:23 42° WSW 21:44:46 13° S
Cosmos 676 Rocket 4.2 21:37:38 10° NNW 21:42:50 71° WSW 21:48:01 10° S
COS B Rocket 3.0 21:40:56 10° N 21:44:53 74° E 21:48:09 12° S
Cosmos 1954 Rocket 4.0 21:40:48 10° NNW 21:46:02 85° WSW 21:50:51 12° SSE
Okean 3 3.4 21:42:11 10° N 21:46:27 69° E 21:49:57 15° SSE
CZ-4 DEB 4.4 21:43:51 10° SSW 21:46:44 33° W 21:49:38 10° NNW
Atlas Centaur 2 3.3 21:53:42 10° SSW 21:54:26 10° SSW 21:55:08 10° S
Cosmos 1825 2.4 21:50:46 10° SSW 21:54:34 72° W 21:58:23 10° N
Cosmos 1939 Rocket 3.1 21:51:52 11° S 21:55:33 65° WSW 21:59:29 10° NNW
GPS 2-05 Rocket1 3.5 21:52:18 10° WSW 21:55:49 40° S 21:57:13 27° SE
MetOp-A 4.3 21:52:13 18° SSE 21:56:11 59° ENE 22:01:27 10° N
Cosmos 1833 Rocket 3.5 21:52:59 10° N 21:58:07 35° ENE 22:01:16 20° ESE
Cosmos 2366 rocket 4.5 21:57:17 18° SSE 22:01:31 41° E 22:07:22 10° NNE
Cosmos 1023 Rocket 4.4 21:56:44 10° NNW 22:01:52 89° ENE 22:05:30 20° SSE
BREEZE-M DEB (TANK) 4.4 22:00:50 10° WSW 22:02:36 17° SSW 22:03:59 15° S
Cosmos 1741 Rocket 4.1 21:57:31 10° NNW 22:02:43 65° ENE 22:05:52 24° SE
Cosmos 2278 Rocket 2.7 21:57:53 10° SW 22:03:31 63° WNW 22:09:10 10° NNE
Okean 2 Rocket 3.1 22:05:23 10° S 22:09:48 82° W 22:14:13 10° N
PSLV R/B 2.9 22:11:01 45° SSE 22:11:47 81° E 22:14:44 10° N
CZ-4 SHROUD 3.0 22:14:23 45° SSE 22:15:13 84° ENE 22:18:20 10° N
Envisat 3.7 22:12:10 11° S 22:16:51 52° W 22:21:50 10° NNW
Cosmos 1782 Rocket 4.3 22:13:05 10° SSW 22:17:27 54° W 22:21:52 10° N
SEDSat Delta rocket 4.3 22:16:23 10° SW 22:19:10 22° S 22:19:10 22° S
UNK 4.4 22:15:10 10° NNE 22:21:21 78° ESE 22:27:02 11° S
Cosmos 614 Rocket 3.8 22:17:15 10° NNW 22:22:22 89° ENE 22:24:53 30° SSE
SL-08 RB Rocket 4.1 22:21:37 33° ESE 22:23:13 48° ENE 22:27:42 10° N
Cosmos 2082 Rocket 2.2 22:18:23 10° NNW 22:24:06 72° ENE 22:26:48 32° SE
OAO 3 Rocket 3.7 22:20:16 10° WSW 22:24:54 41° S 22:25:52 36° SE
COSMOS 2487 4.4 22:23:31 10° NW 22:26:34 25° W 22:28:46 15° SSW
Cosmos 1812 3.8 22:23:46 10° NNE 22:27:11 29° ENE 22:27:16 29° E
Meteor 1-18 Rocket 4.5 22:25:15 10° N 22:31:06 60° ENE 22:33:37 34° SE
APEX 4.5 22:27:28 10° SW 22:31:20 51° WNW 22:36:26 10° NNE
Cosmos 2218 Rocket 4.0 22:26:40 16° S 22:31:52 82° E 22:38:18 10° N
Cosmos 1975 Rocket 4.1 22:28:35 10° NNW 22:32:39 41° W 22:35:39 17° SSW
AVUM R/B 3.6 22:32:57 10° NNW 22:36:25 52° ENE 22:36:29 52° ENE
Meteor 1-14 Rocket 4.3 22:31:24 13° SSW 22:36:27 80° W 22:42:04 10° N
Cosmos 1140 Rocket 4.4 22:32:08 10° NNW 22:36:59 43° WSW 22:40:09 20° SSW
DNEPR-1 R/B 4.5 22:33:10 10° NW 22:38:06 45° WSW 22:39:53 30° SSW
BREEZE-M TANK 4.2 22:25:13 10° W 22:39:04 56° N 22:42:07 16° ENE
ISS -0.4 22:38:26 10° WNW 22:40:50 19° NNW 22:43:15 10° NNE
Terra 2.6 22:40:06 33° E 22:40:58 36° ENE 22:45:19 10° N
Cosmos 2297 4.2 22:35:27 10° SW 22:41:05 62° WNW 22:46:47 10° NNE
Cosmos 1959 Rocket 4.5 22:37:42 17° S 22:42:32 82° W 22:48:40 10° N
USA 234 3.8 22:38:26 10° ENE 22:43:57 33° ESE 22:43:57 33° ESE
Intercosmos 25 4.5 22:42:36 16° SW 22:44:56 34° W 22:47:51 10° NNW
NOAA 11 4.2 22:43:03 35° SSE 22:45:28 86° WSW 22:51:01 10° NNW
Cosmos 1536 Rocket 3.5 22:41:11 10° N 22:45:41 81° E 22:46:41 54° SSE
Cosmos 1727 Rocket 3.9 22:39:58 10° N 22:46:10 77° E 22:48:47 37° SSE
DELTA 2 DEB (DPAF) 4.3 22:45:28 49° ESE 22:46:11 55° ENE 22:50:34 10° N
CZ-4B R/B 3.4 22:41:32 10° NNE 22:46:28 80° WNW 22:49:14 26° SSW
Meteor 2-8 Rocket 4.4 22:40:59 10° N 22:47:11 79° E 22:49:45 38° SSE
H-2A R/B 2.2 22:51:51 45° SE 22:53:13 60° ENE 22:58:26 10° N
Lacrosse 5 rocket 3.2 22:57:31 17° NE 22:57:31 17° NE 22:58:27 10° NE
Spot 4 4.4 22:58:36 40° E 22:59:06 42° ENE 23:03:39 10° N
IGS 5A 3.8 23:01:47 50° ENE 23:01:47 50° ENE 23:05:41 10° N
Meteor 1-11 Rocket 4.3 23:01:36 39° E 23:01:59 40° E 23:07:18 10° NNE
USA 245 4.4 23:03:11 32° WSW 23:03:47 34° W 23:07:36 10° NNW
Cosmos 1339 Rocket 4.4 23:01:25 10° N 23:07:37 87° W 23:09:44 45° S
SPOT 1/Viking Rocket 4.4 23:06:51 29° SSW 23:08:58 44° W 23:13:57 10° NNW
Cosmos 1302 Rocket 4.1 23:09:42 56° ESE 23:09:43 56° ESE 23:14:53 10° NNE
Cosmos 2369 Rocket 3.3 23:11:23 28° E 23:11:23 28° E 23:14:57 10° NE
Lacrosse 5 1.7 23:10:52 68° ESE 23:10:52 68° ESE 23:15:50 10° NE
ARGOS 3.8 23:09:20 33° SSW 23:11:20 49° W 23:16:31 10° NNW
Gbstr 26 Del rocket 3.4 23:08:55 10° NW 23:13:50 56° NNE 23:14:15 53° NE
CZ-4C R/B 3.5 23:14:35 71° W 23:14:35 71° W 23:18:35 10° NNW
Cosmos 1025 Rocket 4.3 23:12:10 10° NNE 23:15:28 31° ENE 23:15:28 31° ENE
Cosmos 1821 Rocket 4.2 23:17:02 47° ESE 23:17:41 48° E 23:23:37 10° NNE
Cosmos 1400 Rocket 4.2 23:25:09 31° NE 23:25:09 31° NE 23:27:39 10° NNE
Meteor 2-21 4.4 23:24:49 57° SE 23:25:36 62° E 23:31:43 10° NNE
Cosmos 1300 Rocket 3.7 23:26:14 66° W 23:26:23 66° W 23:30:49 10° N
Cosmos 1934 Rocket 4.2 23:26:34 46° E 23:26:44 46° E 23:32:29 10° NNE
Cosmos 1536 4.5 23:28:54 25° NE 23:28:54 25° NE 23:30:54 10° NNE
BREEZE-M DEB (TANK) 3.9 23:21:49 10° WNW 23:28:16 32° WSW 23:28:16 32° WSW
Cosmos 2285 Rocket 4.2 23:29:54 49° ESE 23:29:54 49° ESE 23:36:01 10° NNE
Cosmos 1809 Rocket 4.4 23:29:36 62° SE 23:30:25 69° E 23:36:34 10° NNE
ASTEX 1 3.3 23:26:03 10° N 23:31:02 85° E 23:31:04 85° ESE
Meteor 1-19 Rocket 4.3 23:25:45 10° N 23:31:32 62° ENE 23:32:00 60° ESE
Iridium 4 Rocket 4.0 23:26:07 10° N 23:31:56 53° E 23:32:10 53° E
Okean 1 Rocket 3.3 23:33:27 65° WNW 23:33:27 65° WNW 23:37:51 10° N
USA 229 DEB 4.4 23:29:07 10° NW 23:35:48 45° WSW 23:37:41 38° SSW
USA 229 4.4 23:29:12 10° NW 23:35:56 46° WSW 23:37:47 38° SSW
Cosmos 2123 Rocket 4.4 23:30:30 10° N 23:36:30 46° ENE 23:36:59 45° E
Cosmos 1943 Rocket 4.1 23:40:43 16° ENE 23:40:43 16° ENE 23:42:31 10° NE
Cosmos 1833 Rocket 3.8 23:37:01 10° NW 23:41:56 32° WSW 23:42:58 30° SW
Okean 1-7 Rocket 4.4 23:46:43 10° NNW 23:50:37 46° WNW 23:50:37 46° WNW
Cosmos 1503 Rocket 4.1 23:46:37 10° NNW 23:51:35 69° NE 23:51:35 69° NE
